{"data":{"norad_id":68752,"epoch":"2026-05-25T04:00:03.998880Z","epoch_age_seconds":74722,"freshness":"FRESH","line1":"1 68752U 26082AA  26145.16671295 -.01905710  00000+0 -29518-1 0  9991","line2":"2 68752  97.2852   8.8358 0001961  99.1986 124.7476 15.57367338  6009","mean_motion":15.57367338,"eccentricity":0.0001961,"inclination_deg":97.2852,"raan_deg":8.8358,"arg_perigee_deg":99.1986,"mean_anomaly_deg":124.7476,"bstar":-0.029518,"rev_number":600,"period_min":92.463734461599,"perigee_km":393.95152157124,"apogee_km":396.60805563573,"semimajor_km":6773.4167886035,"source":"CELESTRAK","updated_at":"2026-05-25T13:38:22.032439Z"}}